Time,TemperatureF,DewpointF,PressureIn,WindDirection,WindDirectionDegrees,WindSpeedMPH,WindSpeedGustMPH,Humidity,HourlyPrecipIn,Conditions,Clouds,dailyrainin,SoftwareType,DateUTC
2013-03-16 00:00:00,35.3,25.1,29.66,WNW,293,5.1,5.1,66,0.00,,,0.00,WUHU216HW,2013-03-16 04:00:00,
2013-03-16 00:05:00,35.1,25.0,29.66,West,270,1.6,5.4,66,0.00,,,0.00,WUHU216HW,2013-03-16 04:05:00,
2013-03-16 00:11:00,35.1,25.0,29.66,WNW,293,1.8,4.9,66,0.00,,,0.00,WUHU216HW,2013-03-16 04:11:00,
2013-03-16 00:16:00,34.9,24.8,29.66,WNW,293,2.7,3.4,66,0.00,,,0.00,WUHU216HW,2013-03-16 04:16:00,
2013-03-16 00:21:00,34.9,24.8,29.66,NNW,338,2.5,9.2,66,0.00,,,0.00,WUHU216HW,2013-03-16 04:21:00,
2013-03-16 00:26:00,34.7,24.6,29.66,WSW,248,1.8,9.2,66,0.00,,,0.00,WUHU216HW,2013-03-16 04:26:00,
2013-03-16 00:31:00,34.4,24.6,29.66,WNW,293,1.8,8.1,67,0.00,,,0.00,WUHU216HW,2013-03-16 04:31:00,
2013-03-16 00:36:00,34.4,24.6,29.66,West,270,3.6,8.1,67,0.00,,,0.00,WUHU216HW,2013-03-16 04:36:00,
2013-03-16 00:41:00,34.2,24.5,29.67,WNW,293,1.8,7.6,67,0.00,,,0.00,WUHU216HW,2013-03-16 04:41:00,
2013-03-16 00:47:00,34.0,24.3,29.67,West,270,2.0,4.0,67,0.00,,,0.00,WUHU216HW,2013-03-16 04:47:00,
2013-03-16 00:52:00,33.8,24.1,29.67,West,270,0.2,3.8,67,0.00,,,0.00,WUHU216HW,2013-03-16 04:52:00,
2013-03-16 00:57:00,33.6,23.9,29.67,WNW,293,1.8,3.8,67,0.00,,,0.00,WUHU216HW,2013-03-16 04:57:00,
2013-03-16 01:02:00,33.6,23.9,29.67,SW,225,0.7,2.7,67,0.00,,,0.00,WUHU216HW,2013-03-16 05:02:00,
2013-03-16 01:07:00,33.5,23.8,29.67,NNW,338,1.8,2.5,67,0.00,,,0.00,WUHU216HW,2013-03-16 05:07:00,
2013-03-16 01:12:00,33.5,23.8,29.67,West,270,1.3,2.7,67,0.00,,,0.00,WUHU216HW,2013-03-16 05:12:00,
2013-03-16 01:17:00,33.3,23.6,29.67,West,270,0.0,2.7,67,0.00,,,0.00,WUHU216HW,2013-03-16 05:17:00,
2013-03-16 01:22:00,33.1,23.4,29.67,West,270,1.1,4.0,67,0.00,,,0.00,WUHU216HW,2013-03-16 05:22:00,
2013-03-16 01:27:00,32.9,23.2,29.67,WSW,248,1.1,4.0,67,0.00,,,0.00,WUHU216HW,2013-03-16 05:27:00,
2013-03-16 01:32:00,32.9,23.2,29.67,South,180,1.1,2.7,67,0.00,,,0.00,WUHU216HW,2013-03-16 05:32:00,
2013-03-16 01:37:00,32.7,23.0,29.67,WNW,293,4.5,4.5,67,0.00,,,0.00,WUHU216HW,2013-03-16 05:37:00,
2013-03-16 01:42:00,32.6,22.9,29.67,SSW,203,2.5,4.5,67,0.00,,,0.00,WUHU216HW,2013-03-16 05:42:00,
2013-03-16 01:48:00,32.4,22.7,29.67,NW,315,2.2,5.1,67,0.00,,,0.00,WUHU216HW,2013-03-16 05:48:00,
2013-03-16 01:53:00,32.4,22.4,29.67,WSW,248,3.1,5.1,66,0.00,,,0.00,WUHU216HW,2013-03-16 05:53:00,
2013-03-16 01:58:00,32.2,22.2,29.67,NW,315,2.5,6.3,66,0.00,,,0.00,WUHU216HW,2013-03-16 05:58:00,
2013-03-16 02:03:00,32.2,22.2,29.67,NW,315,2.7,6.3,66,0.00,,,0.00,WUHU216HW,2013-03-16 06:03:00,
2013-03-16 02:08:00,32.2,22.2,29.67,WSW,248,1.6,5.4,66,0.00,,,0.00,WUHU216HW,2013-03-16 06:08:00,
2013-03-16 02:13:00,32.2,22.2,29.67,West,270,2.5,5.1,66,0.00,,,0.00,WUHU216HW,2013-03-16 06:13:00,
2013-03-16 02:18:00,32.2,22.2,29.67,West,270,4.0,5.6,66,0.00,,,0.00,WUHU216HW,2013-03-16 06:18:00,
2013-03-16 02:23:00,32.0,21.6,29.66,WNW,293,6.7,7.2,65,0.00,,,0.00,WUHU216HW,2013-03-16 06:23:00,
2013-03-16 02:28:00,31.8,21.4,29.67,West,270,2.5,7.2,65,0.00,,,0.00,WUHU216HW,2013-03-16 06:28:00,
2013-03-16 02:33:00,31.8,21.4,29.67,WNW,293,1.8,4.7,65,0.00,,,0.00,WUHU216HW,2013-03-16 06:33:00,
2013-03-16 02:38:00,31.7,21.3,29.68,WNW,293,5.6,6.0,65,0.00,,,0.00,WUHU216HW,2013-03-16 06:38:00,
2013-03-16 02:43:00,31.7,21.3,29.68,WNW,293,2.7,6.0,65,0.00,,,0.00,WUHU216HW,2013-03-16 06:43:00,
2013-03-16 02:48:00,31.7,21.3,29.68,WNW,293,2.0,4.7,65,0.00,,,0.00,WUHU216HW,2013-03-16 06:48:00,
2013-03-16 02:53:00,31.5,21.2,29.68,West,270,2.9,5.4,65,0.00,,,0.00,WUHU216HW,2013-03-16 06:53:00,
2013-03-16 02:59:00,31.5,21.2,29.68,WNW,293,1.1,5.4,65,0.00,,,0.00,WUHU216HW,2013-03-16 06:59:00,
2013-03-16 03:04:00,31.3,21.0,29.68,West,270,3.4,4.0,65,0.00,,,0.00,WUHU216HW,2013-03-16 07:04:00,
2013-03-16 03:09:00,31.3,21.0,29.68,WNW,293,3.4,4.0,65,0.00,,,0.00,WUHU216HW,2013-03-16 07:09:00,
2013-03-16 03:14:00,31.1,20.4,29.68,WNW,293,2.2,4.3,64,0.00,,,0.00,WUHU216HW,2013-03-16 07:14:00,
2013-03-16 03:19:00,31.1,20.4,29.68,West,270,3.4,4.5,64,0.00,,,0.00,WUHU216HW,2013-03-16 07:19:00,
2013-03-16 03:24:00,30.9,20.2,29.68,WNW,293,2.2,4.5,64,0.00,,,0.00,WUHU216HW,2013-03-16 07:24:00,
2013-03-16 03:29:00,30.9,20.2,29.68,WNW,293,0.4,3.4,64,0.00,,,0.00,WUHU216HW,2013-03-16 07:29:00,
2013-03-16 03:34:00,30.8,20.1,29.68,West,270,1.6,3.4,64,0.00,,,0.00,WUHU216HW,2013-03-16 07:34:00,
2013-03-16 03:39:00,30.8,20.1,29.68,WNW,293,4.9,4.9,64,0.00,,,0.00,WUHU216HW,2013-03-16 07:39:00,
2013-03-16 03:44:00,30.8,20.1,29.68,WNW,293,2.2,4.9,64,0.00,,,0.00,WUHU216HW,2013-03-16 07:44:00,
2013-03-16 03:49:00,30.8,20.1,29.68,WNW,293,2.7,4.9,64,0.00,,,0.00,WUHU216HW,2013-03-16 07:49:00,
2013-03-16 03:54:00,30.6,19.9,29.68,West,270,1.3,4.7,64,0.00,,,0.00,WUHU216HW,2013-03-16 07:54:00,
2013-03-16 03:59:00,30.6,19.9,29.68,WNW,293,1.8,4.7,64,0.00,,,0.00,WUHU216HW,2013-03-16 07:59:00,
2013-03-16 04:04:00,30.4,19.7,29.68,NW,315,2.0,4.3,64,0.00,,,0.00,WUHU216HW,2013-03-16 08:04:00,
2013-03-16 04:10:00,30.4,19.4,29.68,WNW,293,1.6,4.3,63,0.00,,,0.00,WUHU216HW,2013-03-16 08:10:00,
2013-03-16 04:15:00,30.2,19.2,29.68,West,270,1.6,2.2,63,0.00,,,0.00,WUHU216HW,2013-03-16 08:15:00,
2013-03-16 04:20:00,30.0,19.0,29.68,West,270,0.4,2.0,63,0.00,,,0.00,WUHU216HW,2013-03-16 08:20:00,
2013-03-16 04:25:00,30.0,19.0,29.68,NW,315,1.1,3.1,63,0.00,,,0.00,WUHU216HW,2013-03-16 08:25:00,
2013-03-16 04:30:00,30.0,19.0,29.68,East,90,0.4,3.1,63,0.00,,,0.00,WUHU216HW,2013-03-16 08:30:00,
2013-03-16 04:35:00,30.0,19.0,29.68,NW,315,0.4,1.1,63,0.00,,,0.00,WUHU216HW,2013-03-16 08:35:00,
2013-03-16 04:40:00,29.9,18.9,29.68,WNW,293,0.7,1.1,63,0.00,,,0.00,WUHU216HW,2013-03-16 08:40:00,
2013-03-16 04:45:00,29.7,18.7,29.69,West,270,1.6,1.8,63,0.00,,,0.00,WUHU216HW,2013-03-16 08:45:00,
2013-03-16 04:50:00,29.7,19.1,29.69,WNW,293,0.9,1.8,64,0.00,,,0.00,WUHU216HW,2013-03-16 08:50:00,
2013-03-16 04:55:00,29.5,18.9,29.69,NW,315,0.7,1.6,64,0.00,,,0.00,WUHU216HW,2013-03-16 08:55:00,
2013-03-16 05:00:00,29.5,18.9,29.69,NW,315,0.0,1.3,64,0.00,,,0.00,WUHU216HW,2013-03-16 09:00:00,
2013-03-16 05:05:00,29.3,18.7,29.69,NW,315,0.9,1.3,64,0.00,,,0.00,WUHU216HW,2013-03-16 09:05:00,
2013-03-16 05:10:00,29.3,18.7,29.69,West,270,2.7,2.7,64,0.00,,,0.00,WUHU216HW,2013-03-16 09:10:00,
2013-03-16 05:15:00,29.3,18.7,29.69,WNW,293,1.8,4.0,64,0.00,,,0.00,WUHU216HW,2013-03-16 09:15:00,
2013-03-16 05:20:00,29.3,18.7,29.69,NW,315,2.2,4.0,64,0.00,,,0.00,WUHU216HW,2013-03-16 09:20:00,
2013-03-16 05:25:00,29.3,19.1,29.69,West,270,4.0,4.0,65,0.00,,,0.00,WUHU216HW,2013-03-16 09:25:00,
2013-03-16 05:30:00,29.3,18.7,29.69,WNW,293,1.3,4.0,64,0.00,,,0.00,WUHU216HW,2013-03-16 09:30:00,
2013-03-16 05:35:00,29.1,18.9,29.69,WNW,293,1.6,4.9,65,0.00,,,0.00,WUHU216HW,2013-03-16 09:35:00,
2013-03-16 05:40:00,29.1,18.9,29.69,NW,315,0.4,4.9,65,0.00,,,0.00,WUHU216HW,2013-03-16 09:40:00,
2013-03-16 05:45:00,29.1,18.9,29.69,WNW,293,0.4,3.4,65,0.00,,,0.00,WUHU216HW,2013-03-16 09:45:00,
2013-03-16 05:50:00,29.0,18.8,29.70,WSW,248,2.2,3.4,65,0.00,,,0.00,WUHU216HW,2013-03-16 09:50:00,
2013-03-16 05:55:00,29.0,18.8,29.70,WNW,293,0.9,2.5,65,0.00,,,0.00,WUHU216HW,2013-03-16 09:55:00,
2013-03-16 06:00:00,29.0,18.8,29.70,WNW,293,0.7,2.2,65,0.00,,,0.00,WUHU216HW,2013-03-16 10:00:00,
2013-03-16 06:05:00,28.8,18.6,29.70,NW,315,0.4,1.6,65,0.00,,,0.00,WUHU216HW,2013-03-16 10:05:00,
2013-03-16 06:10:00,28.8,18.6,29.70,NW,315,0.2,1.3,65,0.00,,,0.00,WUHU216HW,2013-03-16 10:10:00,
2013-03-16 06:16:00,28.8,18.6,29.70,NW,315,0.4,1.1,65,0.00,,,0.00,WUHU216HW,2013-03-16 10:16:00,
2013-03-16 06:21:00,28.8,18.6,29.70,WNW,293,0.4,0.7,65,0.00,,,0.00,WUHU216HW,2013-03-16 10:21:00,
2013-03-16 06:26:00,28.8,18.9,29.70,West,270,0.2,0.9,66,0.00,,,0.00,WUHU216HW,2013-03-16 10:26:00,
2013-03-16 06:31:00,28.6,18.4,29.70,North,0,0.0,0.9,65,0.00,,,0.00,WUHU216HW,2013-03-16 10:31:00,
2013-03-16 06:36:00,28.6,18.7,29.71,North,0,0.4,0.4,66,0.00,,,0.00,WUHU216HW,2013-03-16 10:36:00,
2013-03-16 06:41:00,28.6,18.7,29.70,NE,45,0.0,0.7,66,0.00,,,0.00,WUHU216HW,2013-03-16 10:41:00,
2013-03-16 06:46:00,28.4,18.5,29.70,NE,45,0.0,0.7,66,0.00,,,0.00,WUHU216HW,2013-03-16 10:46:00,
2013-03-16 06:51:00,28.2,18.4,29.70,ESE,113,0.4,0.4,66,0.00,,,0.00,WUHU216HW,2013-03-16 10:51:00,
2013-03-16 06:56:00,28.2,18.4,29.71,NNW,338,0.2,0.9,66,0.00,,,0.00,WUHU216HW,2013-03-16 10:56:00,
2013-03-16 07:01:00,28.1,18.3,29.70,NW,315,0.0,0.9,66,0.00,,,0.00,WUHU216HW,2013-03-16 11:01:00,
2013-03-16 07:07:00,27.9,18.1,29.70,NNW,338,0.4,0.9,66,0.00,,,0.00,WUHU216HW,2013-03-16 11:07:00,
2013-03-16 07:12:00,27.9,18.1,29.71,NNW,338,0.4,1.1,66,0.00,,,0.00,WUHU216HW,2013-03-16 11:12:00,
2013-03-16 07:17:00,27.9,18.1,29.71,NW,315,0.2,1.1,66,0.00,,,0.00,WUHU216HW,2013-03-16 11:17:00,
2013-03-16 07:22:00,27.9,18.1,29.71,NNW,338,0.7,1.6,66,0.00,,,0.00,WUHU216HW,2013-03-16 11:22:00,
2013-03-16 07:27:00,27.9,18.1,29.71,NNW,338,0.9,1.6,66,0.00,,,0.00,WUHU216HW,2013-03-16 11:27:00,
2013-03-16 07:32:00,27.7,17.9,29.72,NW,315,0.4,1.1,66,0.00,,,0.00,WUHU216HW,2013-03-16 11:32:00,
2013-03-16 07:37:00,27.7,17.9,29.72,NW,315,1.8,1.8,66,0.00,,,0.00,WUHU216HW,2013-03-16 11:37:00,
2013-03-16 07:42:00,27.7,17.9,29.72,West,270,1.1,1.8,66,0.00,,,0.00,WUHU216HW,2013-03-16 11:42:00,
2013-03-16 07:47:00,27.7,17.9,29.72,NW,315,0.2,1.8,66,0.00,,,0.00,WUHU216HW,2013-03-16 11:47:00,
2013-03-16 07:52:00,27.7,17.9,29.73,NNW,338,0.7,1.1,66,0.00,,,0.00,WUHU216HW,2013-03-16 11:52:00,
2013-03-16 07:58:00,27.7,17.9,29.73,NNW,338,0.0,1.1,66,0.00,,,0.00,WUHU216HW,2013-03-16 11:58:00,
2013-03-16 08:03:00,27.9,18.1,29.73,WNW,293,1.1,2.0,66,0.00,,,0.00,WUHU216HW,2013-03-16 12:03:00,
2013-03-16 08:08:00,27.9,18.1,29.73,NW,315,1.3,2.0,66,0.00,,,0.00,WUHU216HW,2013-03-16 12:08:00,
2013-03-16 08:13:00,27.9,18.1,29.73,WNW,293,0.9,1.8,66,0.00,,,0.00,WUHU216HW,2013-03-16 12:13:00,
2013-03-16 08:18:00,27.9,18.1,29.73,WNW,293,0.2,2.2,66,0.00,,,0.00,WUHU216HW,2013-03-16 12:18:00,
2013-03-16 08:23:00,27.9,18.1,29.73,West,270,0.4,2.2,66,0.00,,,0.00,WUHU216HW,2013-03-16 12:23:00,
2013-03-16 08:28:00,28.1,18.3,29.73,WSW,248,0.4,1.1,66,0.00,,,0.00,WUHU216HW,2013-03-16 12:28:00,
2013-03-16 08:33:00,28.1,18.3,29.73,WNW,293,0.0,0.9,66,0.00,,,0.00,WUHU216HW,2013-03-16 12:33:00,
2013-03-16 08:38:00,28.2,18.4,29.73,WNW,293,0.7,1.1,66,0.00,,,0.00,WUHU216HW,2013-03-16 12:38:00,
2013-03-16 08:43:00,28.2,18.4,29.73,NW,315,0.4,1.1,66,0.00,,,0.00,WUHU216HW,2013-03-16 12:43:00,
2013-03-16 08:48:00,28.2,18.4,29.72,West,270,0.4,1.1,66,0.00,,,0.00,WUHU216HW,2013-03-16 12:48:00,
2013-03-16 08:53:00,28.2,18.4,29.72,North,0,0.0,1.1,66,0.00,,,0.00,WUHU216HW,2013-03-16 12:53:00,
2013-03-16 08:58:00,28.2,18.4,29.72,North,0,1.1,1.8,66,0.00,,,0.00,WUHU216HW,2013-03-16 12:58:00,
2013-03-16 09:03:00,28.2,18.4,29.72,NW,315,1.1,1.8,66,0.00,,,0.00,WUHU216HW,2013-03-16 13:03:00,
2013-03-16 09:08:00,28.4,18.5,29.72,NNW,338,0.9,1.8,66,0.00,,,0.00,WUHU216HW,2013-03-16 13:08:00,
2013-03-16 09:13:00,28.4,18.2,29.72,WNW,293,0.4,1.8,65,0.00,,,0.00,WUHU216HW,2013-03-16 13:13:00,
2013-03-16 09:19:00,28.6,18.4,29.72,NNW,338,0.0,1.8,65,0.00,,,0.00,WUHU216HW,2013-03-16 13:19:00,
2013-03-16 09:24:00,28.6,18.4,29.72,NW,315,0.0,1.6,65,0.00,,,0.00,WUHU216HW,2013-03-16 13:24:00,
2013-03-16 09:29:00,28.6,18.4,29.72,NW,315,0.4,2.0,65,0.00,,,0.00,WUHU216HW,2013-03-16 13:29:00,
2013-03-16 09:34:00,28.8,18.6,29.72,NNE,23,0.7,2.0,65,0.00,,,0.00,WUHU216HW,2013-03-16 13:34:00,
2013-03-16 09:39:00,28.8,18.6,29.72,WSW,248,0.7,2.2,65,0.00,,,0.00,WUHU216HW,2013-03-16 13:39:00,
2013-03-16 09:44:00,29.0,18.8,29.72,NW,315,1.1,2.2,65,0.00,,,0.00,WUHU216HW,2013-03-16 13:44:00,
2013-03-16 09:49:00,29.0,18.8,29.71,West,270,0.0,1.8,65,0.00,,,0.00,WUHU216HW,2013-03-16 13:49:00,
2013-03-16 09:54:00,29.1,18.9,29.72,WNW,293,0.4,2.2,65,0.00,,,0.00,WUHU216HW,2013-03-16 13:54:00,
2013-03-16 09:59:00,29.3,19.1,29.72,West,270,1.1,2.9,65,0.00,,,0.00,WUHU216HW,2013-03-16 13:59:00,
2013-03-16 10:04:00,29.3,18.7,29.72,NW,315,0.9,3.4,64,0.00,,,0.00,WUHU216HW,2013-03-16 14:04:00,
2013-03-16 10:09:00,29.3,18.7,29.72,NNE,23,0.2,3.4,64,0.00,,,0.00,WUHU216HW,2013-03-16 14:09:00,
2013-03-16 10:14:00,29.1,18.5,29.71,NW,315,1.1,2.5,64,0.00,,,0.00,WUHU216HW,2013-03-16 14:14:00,
2013-03-16 10:19:00,29.3,18.7,29.71,WNW,293,0.4,2.5,64,0.00,,,0.00,WUHU216HW,2013-03-16 14:19:00,
2013-03-16 10:24:00,29.3,18.7,29.71,WNW,293,0.0,2.5,64,0.00,,,0.00,WUHU216HW,2013-03-16 14:24:00,
2013-03-16 10:29:00,29.3,18.3,29.71,NNW,338,0.9,2.5,63,0.00,,,0.00,WUHU216HW,2013-03-16 14:29:00,
2013-03-16 10:34:00,29.3,18.3,29.71,NW,315,0.9,0.9,63,0.00,,,0.00,WUHU216HW,2013-03-16 14:34:00,
2013-03-16 10:39:00,29.5,18.5,29.71,NW,315,0.2,1.3,63,0.00,,,0.00,WUHU216HW,2013-03-16 14:39:00,
2013-03-16 10:45:00,29.5,18.5,29.71,WNW,293,0.4,1.6,63,0.00,,,0.00,WUHU216HW,2013-03-16 14:45:00,
2013-03-16 10:50:00,29.5,18.5,29.71,West,270,0.4,2.0,63,0.00,,,0.00,WUHU216HW,2013-03-16 14:50:00,
2013-03-16 10:55:00,29.7,18.7,29.71,WNW,293,0.0,2.0,63,0.00,,,0.00,WUHU216HW,2013-03-16 14:55:00,
2013-03-16 11:00:00,29.9,18.9,29.71,NNW,338,0.0,1.6,63,0.00,,,0.00,WUHU216HW,2013-03-16 15:00:00,
2013-03-16 11:05:00,29.9,18.9,29.71,West,270,1.3,1.6,63,0.00,,,0.00,WUHU216HW,2013-03-16 15:05:00,
2013-03-16 11:10:00,30.0,19.0,29.71,WNW,293,0.9,1.6,63,0.00,,,0.00,WUHU216HW,2013-03-16 15:10:00,
2013-03-16 11:15:00,30.0,18.6,29.72,West,270,3.1,3.1,62,0.00,,,0.00,WUHU216HW,2013-03-16 15:15:00,
2013-03-16 11:20:00,30.2,19.2,29.71,NNW,338,1.1,3.4,63,0.00,,,0.00,WUHU216HW,2013-03-16 15:20:00,
2013-03-16 11:25:00,30.2,18.8,29.71,NW,315,1.3,3.4,62,0.00,,,0.00,WUHU216HW,2013-03-16 15:25:00,
2013-03-16 11:30:00,30.4,19.0,29.71,WSW,248,2.2,2.9,62,0.00,,,0.00,WUHU216HW,2013-03-16 15:30:00,
2013-03-16 11:35:00,30.4,19.0,29.71,SSW,203,0.4,2.9,62,0.00,,,0.00,WUHU216HW,2013-03-16 15:35:00,
2013-03-16 11:40:00,30.6,19.2,29.71,SSE,158,3.4,3.4,62,0.00,,,0.00,WUHU216HW,2013-03-16 15:40:00,
2013-03-16 11:45:00,30.8,19.4,29.70,SW,225,0.4,3.4,62,0.00,,,0.00,WUHU216HW,2013-03-16 15:45:00,
2013-03-16 11:50:00,30.8,19.4,29.70,WSW,248,0.7,3.4,62,0.00,,,0.00,WUHU216HW,2013-03-16 15:50:00,
2013-03-16 11:55:00,30.8,19.4,29.69,NW,315,0.2,2.2,62,0.00,,,0.00,WUHU216HW,2013-03-16 15:55:00,
2013-03-16 12:00:00,30.8,19.4,29.69,SE,135,0.4,2.2,62,0.00,,,0.00,WUHU216HW,2013-03-16 16:00:00,
2013-03-16 12:05:00,30.8,19.7,29.69,NW,315,1.1,1.8,63,0.00,,,0.00,WUHU216HW,2013-03-16 16:05:00,
2013-03-16 12:10:00,30.8,19.4,29.69,WNW,293,0.7,2.5,62,0.00,,,0.00,WUHU216HW,2013-03-16 16:10:00,
2013-03-16 12:15:00,30.8,19.4,29.69,NW,315,1.1,2.5,62,0.00,,,0.00,WUHU216HW,2013-03-16 16:15:00,
2013-03-16 12:20:00,30.9,19.8,29.70,WNW,293,0.4,2.5,63,0.00,,,0.00,WUHU216HW,2013-03-16 16:20:00,
2013-03-16 12:25:00,30.8,19.7,29.69,NW,315,0.4,1.8,63,0.00,,,0.00,WUHU216HW,2013-03-16 16:25:00,
2013-03-16 12:31:00,30.6,19.6,29.69,WNW,293,1.3,1.3,63,0.00,,,0.00,WUHU216HW,2013-03-16 16:31:00,
2013-03-16 12:36:00,30.6,19.9,29.69,West,270,0.2,1.3,64,0.00,,,0.00,WUHU216HW,2013-03-16 16:36:00,
2013-03-16 12:41:00,30.4,20.1,29.69,NNE,23,1.3,1.3,65,0.00,,,0.00,WUHU216HW,2013-03-16 16:41:00,
2013-03-16 12:46:00,30.0,20.1,29.69,WNW,293,0.0,1.3,66,0.00,,,0.00,WUHU216HW,2013-03-16 16:46:00,
2013-03-16 12:51:00,30.0,20.1,29.70,WNW,293,1.1,1.1,66,0.00,,,0.00,WUHU216HW,2013-03-16 16:51:00,
2013-03-16 12:56:00,30.0,20.1,29.70,WNW,293,1.8,1.8,66,0.00,,,0.00,WUHU216HW,2013-03-16 16:56:00,
2013-03-16 13:01:00,29.9,20.3,29.70,NNW,338,0.4,1.8,67,0.00,,,0.00,WUHU216HW,2013-03-16 17:01:00,
2013-03-16 13:06:00,29.5,20.3,29.70,NNW,338,0.7,1.3,68,0.00,,,0.00,WUHU216HW,2013-03-16 17:06:00,
2013-03-16 13:11:00,29.1,19.9,29.70,NNW,338,0.2,1.3,68,0.00,,,0.00,WUHU216HW,2013-03-16 17:11:00,
2013-03-16 13:17:00,28.8,20.0,29.69,NNW,338,0.0,1.3,69,0.00,,,0.00,WUHU216HW,2013-03-16 17:17:00,
2013-03-16 13:22:00,28.6,20.1,29.69,NNW,338,0.4,0.9,70,0.00,,,0.00,WUHU216HW,2013-03-16 17:22:00,
2013-03-16 13:27:00,28.4,19.9,29.68,NNW,338,0.2,0.9,70,0.00,,,0.00,WUHU216HW,2013-03-16 17:27:00,
2013-03-16 13:32:00,28.4,20.2,29.68,NNW,338,0.2,1.6,71,0.00,,,0.00,WUHU216HW,2013-03-16 17:32:00,
2013-03-16 13:37:00,28.2,20.4,29.68,NNW,338,0.2,1.1,72,0.00,,,0.00,WUHU216HW,2013-03-16 17:37:00,
2013-03-16 13:42:00,28.2,20.4,29.69,NNW,338,0.4,1.1,72,0.00,,,0.00,WUHU216HW,2013-03-16 17:42:00,
2013-03-16 13:47:00,28.4,20.6,29.69,NW,315,0.4,1.1,72,0.00,,,0.00,WUHU216HW,2013-03-16 17:47:00,
2013-03-16 13:52:00,28.6,21.1,29.69,NNW,338,0.2,1.1,73,0.00,,,0.00,WUHU216HW,2013-03-16 17:52:00,
2013-03-16 13:57:00,28.6,21.1,29.69,WNW,293,0.2,0.4,73,0.00,,,0.00,WUHU216HW,2013-03-16 17:57:00,
2013-03-16 14:02:00,28.6,21.1,29.69,WNW,293,0.0,0.4,73,0.00,,,0.00,WUHU216HW,2013-03-16 18:02:00,
2013-03-16 14:07:00,28.6,21.1,29.69,WNW,293,0.0,0.4,73,0.00,,,0.00,WUHU216HW,2013-03-16 18:07:00,
2013-03-16 14:12:00,28.8,21.3,29.69,WNW,293,0.0,0.7,73,0.00,,,0.00,WUHU216HW,2013-03-16 18:12:00,
2013-03-16 14:17:00,28.8,21.6,29.68,WNW,293,0.0,0.7,74,0.01,,,0.01,WUHU216HW,2013-03-16 18:17:00,
2013-03-16 14:23:00,28.8,21.6,29.68,NW,315,0.0,0.9,74,0.01,,,0.01,WUHU216HW,2013-03-16 18:23:00,
2013-03-16 14:28:00,28.6,21.7,29.68,WNW,293,0.0,0.9,75,0.01,,,0.01,WUHU216HW,2013-03-16 18:28:00,
2013-03-16 14:33:00,28.6,21.7,29.68,NW,315,0.2,0.9,75,0.01,,,0.01,WUHU216HW,2013-03-16 18:33:00,
2013-03-16 14:38:00,28.6,21.7,29.67,NNW,338,0.0,0.9,75,0.01,,,0.01,WUHU216HW,2013-03-16 18:38:00,
2013-03-16 14:43:00,29.0,22.1,29.67,West,270,0.0,0.9,75,0.01,,,0.01,WUHU216HW,2013-03-16 18:43:00,
2013-03-16 14:48:00,28.8,22.2,29.66,NNW,338,1.1,1.1,76,0.01,,,0.01,WUHU216HW,2013-03-16 18:48:00,
2013-03-16 14:53:00,28.8,22.2,29.66,NNW,338,0.9,1.3,76,0.01,,,0.01,WUHU216HW,2013-03-16 18:53:00,
2013-03-16 14:58:00,28.8,22.2,29.66,NNW,338,0.9,1.3,76,0.01,,,0.01,WUHU216HW,2013-03-16 18:58:00,
2013-03-16 15:03:00,29.0,22.4,29.66,North,0,0.4,1.1,76,0.01,,,0.01,WUHU216HW,2013-03-16 19:03:00,
2013-03-16 15:08:00,29.0,22.4,29.67,NW,315,0.7,1.1,76,0.01,,,0.01,WUHU216HW,2013-03-16 19:08:00,
2013-03-16 15:13:00,29.1,22.5,29.66,South,180,0.0,1.3,76,0.01,,,0.01,WUHU216HW,2013-03-16 19:13:00,
2013-03-16 15:18:00,29.1,22.5,29.66,South,180,0.0,1.3,76,0.01,,,0.02,WUHU216HW,2013-03-16 19:18:00,
2013-03-16 15:23:00,29.0,22.4,29.66,NE,45,0.0,0.7,76,0.01,,,0.02,WUHU216HW,2013-03-16 19:23:00,
2013-03-16 15:29:00,29.0,22.7,29.65,NW,315,0.0,0.9,77,0.01,,,0.02,WUHU216HW,2013-03-16 19:29:00,
2013-03-16 15:34:00,29.1,22.8,29.66,SW,225,0.0,1.1,77,0.01,,,0.02,WUHU216HW,2013-03-16 19:34:00,
2013-03-16 15:39:00,29.3,23.0,29.66,NNW,338,0.9,1.1,77,0.02,,,0.03,WUHU216HW,2013-03-16 19:39:00,
2013-03-16 15:44:00,29.3,23.0,29.66,NNW,338,0.0,1.3,77,0.02,,,0.03,WUHU216HW,2013-03-16 19:44:00,
2013-03-16 15:49:00,29.1,22.8,29.66,West,270,0.0,1.3,77,0.02,,,0.03,WUHU216HW,2013-03-16 19:49:00,
2013-03-16 15:54:00,29.1,22.8,29.66,North,0,0.2,0.4,77,0.02,,,0.03,WUHU216HW,2013-03-16 19:54:00,
2013-03-16 15:59:00,29.0,22.7,29.65,NW,315,0.0,0.4,77,0.02,,,0.03,WUHU216HW,2013-03-16 19:59:00,
2013-03-16 16:04:00,29.0,22.7,29.66,NW,315,0.2,0.4,77,0.02,,,0.03,WUHU216HW,2013-03-16 20:04:00,
2013-03-16 16:09:00,28.8,22.5,29.65,SSE,158,0.0,0.7,77,0.02,,,0.03,WUHU216HW,2013-03-16 20:09:00,
2013-03-16 16:14:00,28.8,22.8,29.65,NW,315,0.0,0.7,78,0.02,,,0.03,WUHU216HW,2013-03-16 20:14:00,
2013-03-16 16:19:00,29.0,23.0,29.65,ENE,68,1.1,1.1,78,0.01,,,0.03,WUHU216HW,2013-03-16 20:19:00,
2013-03-16 16:24:00,29.1,23.1,29.64,SSE,158,0.0,1.1,78,0.01,,,0.03,WUHU216HW,2013-03-16 20:24:00,
2013-03-16 16:29:00,29.3,23.3,29.65,NW,315,0.2,1.1,78,0.01,,,0.03,WUHU216HW,2013-03-16 20:29:00,
2013-03-16 16:35:00,29.3,23.3,29.65,SW,225,0.0,0.9,78,0.02,,,0.04,WUHU216HW,2013-03-16 20:35:00,
2013-03-16 16:40:00,29.3,23.3,29.66,WNW,293,0.0,0.9,78,0.01,,,0.04,WUHU216HW,2013-03-16 20:40:00,
2013-03-16 16:45:00,29.3,23.3,29.66,NNW,338,0.2,0.4,78,0.01,,,0.04,WUHU216HW,2013-03-16 20:45:00,
2013-03-16 16:50:00,29.3,23.3,29.66,NNE,23,0.0,1.6,78,0.01,,,0.04,WUHU216HW,2013-03-16 20:50:00,
2013-03-16 16:55:00,29.3,23.3,29.65,SE,135,0.4,1.6,78,0.01,,,0.04,WUHU216HW,2013-03-16 20:55:00,
2013-03-16 17:00:00,29.3,23.3,29.65,ENE,68,1.8,1.8,78,0.01,,,0.04,WUHU216HW,2013-03-16 21:00:00,
2013-03-16 17:05:00,29.3,23.3,29.66,SE,135,0.7,1.8,78,0.01,,,0.04,WUHU216HW,2013-03-16 21:05:00,
2013-03-16 17:10:00,29.3,23.3,29.66,SE,135,0.7,1.8,78,0.02,,,0.04,WUHU216HW,2013-03-16 21:10:00,
2013-03-16 17:15:00,29.5,23.5,29.65,SE,135,0.0,2.0,78,0.02,,,0.05,WUHU216HW,2013-03-16 21:15:00,
2013-03-16 17:20:00,29.5,23.5,29.65,SE,135,0.2,2.0,78,0.02,,,0.05,WUHU216HW,2013-03-16 21:20:00,
2013-03-16 17:26:00,29.5,23.5,29.65,SE,135,0.4,1.1,78,0.02,,,0.05,WUHU216HW,2013-03-16 21:26:00,
2013-03-16 17:31:00,29.7,23.7,29.66,SE,135,0.0,1.1,78,0.01,,,0.05,WUHU216HW,2013-03-16 21:31:00,
2013-03-16 17:36:00,29.7,23.7,29.66,SE,135,0.4,1.1,78,0.01,,,0.05,WUHU216HW,2013-03-16 21:36:00,
2013-03-16 17:41:00,29.7,23.7,29.65,SE,135,1.1,1.1,78,0.01,,,0.05,WUHU216HW,2013-03-16 21:41:00,
2013-03-16 17:46:00,29.7,23.7,29.65,SE,135,0.2,1.1,78,0.01,,,0.05,WUHU216HW,2013-03-16 21:46:00,
2013-03-16 17:51:00,29.5,23.5,29.65,SE,135,0.0,0.7,78,0.01,,,0.05,WUHU216HW,2013-03-16 21:51:00,
2013-03-16 17:56:00,29.7,23.7,29.66,SE,135,0.0,0.2,78,0.01,,,0.05,WUHU216HW,2013-03-16 21:56:00,
2013-03-16 18:01:00,29.5,23.5,29.66,SE,135,0.0,0.4,78,0.01,,,0.05,WUHU216HW,2013-03-16 22:01:00,
2013-03-16 18:06:00,29.5,23.5,29.66,SE,135,0.0,0.4,78,0.01,,,0.05,WUHU216HW,2013-03-16 22:06:00,
2013-03-16 18:11:00,29.3,23.3,29.66,SE,135,0.0,0.7,78,0.00,,,0.05,WUHU216HW,2013-03-16 22:11:00,
2013-03-16 18:17:00,29.3,23.3,29.66,SE,135,0.7,0.7,78,0.00,,,0.05,WUHU216HW,2013-03-16 22:17:00,
2013-03-16 18:22:00,29.1,23.1,29.66,SE,135,0.2,0.9,78,0.00,,,0.05,WUHU216HW,2013-03-16 22:22:00,
2013-03-16 18:27:00,29.0,23.0,29.66,SE,135,0.0,1.1,78,0.00,,,0.05,WUHU216HW,2013-03-16 22:27:00,
2013-03-16 18:32:00,29.0,23.0,29.66,SE,135,0.0,1.1,78,0.00,,,0.05,WUHU216HW,2013-03-16 22:32:00,
2013-03-16 18:37:00,29.0,23.0,29.66,SE,135,0.0,1.1,78,0.00,,,0.05,WUHU216HW,2013-03-16 22:37:00,
2013-03-16 18:42:00,29.0,23.0,29.66,SE,135,0.4,1.1,78,0.00,,,0.05,WUHU216HW,2013-03-16 22:42:00,
2013-03-16 18:47:00,29.0,23.0,29.66,SE,135,0.2,0.7,78,0.00,,,0.05,WUHU216HW,2013-03-16 22:47:00,
2013-03-16 18:52:00,28.8,22.8,29.67,SE,135,0.0,0.7,78,0.00,,,0.05,WUHU216HW,2013-03-16 22:52:00,
2013-03-16 18:57:00,29.0,23.0,29.67,SE,135,0.0,0.4,78,0.00,,,0.05,WUHU216HW,2013-03-16 22:57:00,
2013-03-16 19:02:00,29.0,23.0,29.67,SE,135,0.0,0.9,78,0.00,,,0.05,WUHU216HW,2013-03-16 23:02:00,
2013-03-16 19:07:00,29.0,23.0,29.68,SE,135,0.2,0.9,78,0.00,,,0.05,WUHU216HW,2013-03-16 23:07:00,
2013-03-16 19:12:00,29.0,23.0,29.67,SE,135,0.4,1.1,78,0.00,,,0.05,WUHU216HW,2013-03-16 23:12:00,
2013-03-16 19:18:00,29.0,23.0,29.68,SE,135,0.4,1.1,78,0.00,,,0.05,WUHU216HW,2013-03-16 23:18:00,
2013-03-16 19:23:00,29.0,23.0,29.68,SE,135,0.0,1.8,78,0.00,,,0.05,WUHU216HW,2013-03-16 23:23:00,
2013-03-16 19:28:00,29.0,23.0,29.69,SE,135,0.7,1.8,78,0.00,,,0.05,WUHU216HW,2013-03-16 23:28:00,
2013-03-16 19:33:00,29.0,23.0,29.69,SE,135,0.4,0.9,78,0.00,,,0.05,WUHU216HW,2013-03-16 23:33:00,
2013-03-16 19:38:00,28.8,22.8,29.69,SE,135,0.4,1.8,78,0.00,,,0.05,WUHU216HW,2013-03-16 23:38:00,
2013-03-16 19:43:00,28.8,22.8,29.69,SE,135,0.0,1.8,78,0.00,,,0.05,WUHU216HW,2013-03-16 23:43:00,
2013-03-16 19:48:00,28.6,22.6,29.69,SE,135,0.4,2.2,78,0.00,,,0.05,WUHU216HW,2013-03-16 23:48:00,
2013-03-16 19:53:00,28.6,22.9,29.69,SE,135,0.4,2.2,79,0.00,,,0.05,WUHU216HW,2013-03-16 23:53:00,
2013-03-16 19:58:00,28.4,22.7,29.70,SE,135,0.0,1.3,79,0.00,,,0.05,WUHU216HW,2013-03-16 23:58:00,
2013-03-16 20:03:00,28.4,22.7,29.70,SE,135,0.4,0.7,79,0.00,,,0.05,WUHU216HW,2013-03-17 00:03:00,
2013-03-16 20:08:00,28.4,22.7,29.70,SE,135,0.9,1.6,79,0.00,,,0.05,WUHU216HW,2013-03-17 00:08:00,
2013-03-16 20:13:00,28.2,22.5,29.70,SE,135,0.4,1.6,79,0.00,,,0.05,WUHU216HW,2013-03-17 00:13:00,
2013-03-16 20:18:00,28.1,22.4,29.71,SE,135,0.7,1.3,79,0.00,,,0.05,WUHU216HW,2013-03-17 00:18:00,
2013-03-16 20:23:00,28.1,22.4,29.71,SE,135,0.0,1.3,79,0.00,,,0.05,WUHU216HW,2013-03-17 00:23:00,
2013-03-16 20:28:00,28.1,22.4,29.71,SE,135,0.2,0.9,79,0.00,,,0.05,WUHU216HW,2013-03-17 00:28:00,
2013-03-16 20:33:00,28.1,22.4,29.72,SE,135,0.0,0.9,79,0.00,,,0.05,WUHU216HW,2013-03-17 00:33:00,
2013-03-16 20:38:00,28.1,22.4,29.72,SE,135,0.2,0.4,79,0.00,,,0.05,WUHU216HW,2013-03-17 00:38:00,
2013-03-16 20:43:00,28.2,22.5,29.72,SE,135,0.7,1.1,79,0.00,,,0.05,WUHU216HW,2013-03-17 00:43:00,
2013-03-16 20:48:00,28.1,22.4,29.72,SE,135,0.4,1.1,79,0.00,,,0.05,WUHU216HW,2013-03-17 00:48:00,
2013-03-16 20:53:00,28.1,22.4,29.72,SE,135,0.4,0.9,79,0.00,,,0.05,WUHU216HW,2013-03-17 00:53:00,
2013-03-16 20:59:00,28.1,22.4,29.72,SE,135,0.2,0.9,79,0.00,,,0.05,WUHU216HW,2013-03-17 00:59:00,
2013-03-16 21:04:00,28.1,22.4,29.73,SE,135,0.4,0.9,79,0.00,,,0.05,WUHU216HW,2013-03-17 01:04:00,
2013-03-16 21:09:00,28.1,22.4,29.73,SE,135,0.0,0.9,79,0.00,,,0.05,WUHU216HW,2013-03-17 01:09:00,
2013-03-16 21:14:00,28.1,22.4,29.73,SE,135,0.0,0.9,79,0.00,,,0.05,WUHU216HW,2013-03-17 01:14:00,
2013-03-16 21:19:00,28.1,22.4,29.73,SE,135,0.4,0.9,79,0.00,,,0.05,WUHU216HW,2013-03-17 01:19:00,
2013-03-16 21:24:00,28.1,22.4,29.74,SE,135,0.0,0.7,79,0.00,,,0.05,WUHU216HW,2013-03-17 01:24:00,
2013-03-16 21:29:00,28.1,22.4,29.74,SE,135,0.0,0.7,79,0.00,,,0.05,WUHU216HW,2013-03-17 01:29:00,
2013-03-16 21:34:00,28.1,22.4,29.74,SE,135,0.0,0.4,79,0.00,,,0.05,WUHU216HW,2013-03-17 01:34:00,
2013-03-16 21:39:00,28.1,22.4,29.74,SE,135,0.4,0.4,79,0.00,,,0.05,WUHU216HW,2013-03-17 01:39:00,
2013-03-16 21:44:00,28.1,22.4,29.74,SE,135,0.0,0.7,79,0.00,,,0.05,WUHU216HW,2013-03-17 01:44:00,
2013-03-16 21:49:00,28.1,22.4,29.74,SE,135,0.0,0.7,79,0.00,,,0.05,WUHU216HW,2013-03-17 01:49:00,
2013-03-16 21:54:00,28.1,22.4,29.74,SE,135,0.0,0.0,79,0.00,,,0.05,WUHU216HW,2013-03-17 01:54:00,
2013-03-16 21:59:00,28.1,22.4,29.75,SE,135,0.0,0.4,79,0.00,,,0.05,WUHU216HW,2013-03-17 01:59:00,
2013-03-16 22:04:00,28.2,22.5,29.75,SE,135,0.4,0.7,79,0.00,,,0.05,WUHU216HW,2013-03-17 02:04:00,
2013-03-16 22:09:00,28.4,22.7,29.75,SE,135,0.4,0.7,79,0.00,,,0.05,WUHU216HW,2013-03-17 02:09:00,
2013-03-16 22:15:00,28.4,22.7,29.76,SE,135,0.4,0.4,79,0.00,,,0.05,WUHU216HW,2013-03-17 02:15:00,
2013-03-16 22:20:00,28.4,22.7,29.76,SE,135,0.2,0.4,79,0.00,,,0.05,WUHU216HW,2013-03-17 02:20:00,
2013-03-16 22:25:00,28.4,22.7,29.76,SE,135,0.2,0.9,79,0.00,,,0.05,WUHU216HW,2013-03-17 02:25:00,
2013-03-16 22:30:00,28.2,22.5,29.76,SE,135,0.0,0.9,79,0.00,,,0.05,WUHU216HW,2013-03-17 02:30:00,
2013-03-16 22:35:00,28.2,22.5,29.76,SE,135,0.2,0.7,79,0.00,,,0.05,WUHU216HW,2013-03-17 02:35:00,
2013-03-16 22:40:00,28.2,22.5,29.76,SE,135,0.0,0.4,79,0.00,,,0.05,WUHU216HW,2013-03-17 02:40:00,
2013-03-16 22:45:00,28.1,22.4,29.77,SE,135,0.4,0.9,79,0.00,,,0.05,WUHU216HW,2013-03-17 02:45:00,
2013-03-16 22:50:00,28.1,22.4,29.77,SE,135,0.2,0.9,79,0.00,,,0.05,WUHU216HW,2013-03-17 02:50:00,
2013-03-16 22:55:00,28.1,22.4,29.77,SE,135,0.4,0.9,79,0.00,,,0.05,WUHU216HW,2013-03-17 02:55:00,
2013-03-16 23:00:00,28.1,22.4,29.77,SE,135,0.4,0.9,79,0.00,,,0.05,WUHU216HW,2013-03-17 03:00:00,
2013-03-16 23:05:00,28.1,22.4,29.77,SE,135,0.2,0.7,79,0.00,,,0.05,WUHU216HW,2013-03-17 03:05:00,
2013-03-16 23:10:00,28.1,22.4,29.77,SE,135,0.4,0.4,79,0.00,,,0.05,WUHU216HW,2013-03-17 03:10:00,
2013-03-16 23:15:00,28.1,22.4,29.77,SE,135,0.4,0.7,79,0.00,,,0.05,WUHU216HW,2013-03-17 03:15:00,
2013-03-16 23:20:00,28.1,22.4,29.77,SE,135,1.1,1.1,79,0.00,,,0.05,WUHU216HW,2013-03-17 03:20:00,
2013-03-16 23:25:00,28.2,22.5,29.78,SE,135,0.4,1.1,79,0.00,,,0.05,WUHU216HW,2013-03-17 03:25:00,
2013-03-16 23:30:00,28.2,22.5,29.78,SE,135,0.9,1.1,79,0.00,,,0.05,WUHU216HW,2013-03-17 03:30:00,
2013-03-16 23:36:00,28.2,22.5,29.78,SE,135,0.2,1.8,79,0.00,,,0.05,WUHU216HW,2013-03-17 03:36:00,
2013-03-16 23:41:00,28.1,22.4,29.78,SE,135,0.0,1.8,79,0.00,,,0.05,WUHU216HW,2013-03-17 03:41:00,
2013-03-16 23:46:00,27.9,22.2,29.79,SE,135,0.7,1.1,79,0.00,,,0.05,WUHU216HW,2013-03-17 03:46:00,
2013-03-16 23:51:00,27.9,22.2,29.79,SE,135,1.1,1.1,79,0.00,,,0.05,WUHU216HW,2013-03-17 03:51:00,
2013-03-16 23:56:00,27.9,22.5,29.79,SE,135,0.9,1.8,80,0.00,,,0.05,WUHU216HW,2013-03-17 03:56:00,